Flag for France Weather past 2 weeks in Besançon, France

Now
52 °F

Light rain. Mostly cloudy.


Feels Like: 48 °F
Forecast: 49 / 53 °F
Wind: 12 mph from Southwest

Location: Dole Tavaux

Current Time: Dec 18, 2014 at 11:08:10 PM

Latest Report: Dec 18, 2014 at 10:30 PM


Visibility: N/A

Pressure: 30.30 "Hg

Humidity: 94%

Dew point: 50 °F

Location of BesançonLocation

Historic Weather in Besançon — Graph

°F

Besançon temperature yesterday

Maximum temperature yesterday: 45 °F (at 9:30 PM)
Minimum temperature yesterday: 34 °F (at 4:00 AM)
Average temperature yesterday: 40 °F

Past Weeks' High & Low Weather Summary

 TemperatureHumidityPressure
High57 °F (Dec 13, 12:30 PM)100% (Dec 8, 3:00 AM)30.45 "Hg (Dec 8, 3:00 AM)
Low28 °F (Dec 10, 2:00 AM)63% (Dec 13, 11:30 AM)29.83 "Hg (Dec 13, 2:30 AM)
Average43 °F88%30.10 "Hg
* Reported Dec 3 9:00 PM — Dec 18 9:30 PM, Besançon, Weather by CustomWeather, © 2014

Note: Actual official high and low records may vary slightly from our data, if they occured in-between our weather recording intervals... More about our weather records

Advertising

Besançon weather history for previous 24 hours

 ConditionsComfort  
Time TempWeatherWind HumidityBarometerVisibility
9:30 PM
Dec 18
52 °FMostly cloudy.9 mph94%30.30 "HgN/A
9:00 PM52 °FOvercast.10 mph94%30.27 "HgN/A
8:30 PM52 °FOvercast.10 mph94%30.27 "HgN/A
8:00 PM52 °FMostly cloudy.10 mph94%30.27 "HgN/A
7:30 PM52 °FOvercast.10 mph94%30.27 "HgN/A
7:00 PM52 °FMostly cloudy.10 mph94%30.27 "HgN/A
6:30 PM52 °FOvercast.14 mph94%30.24 "HgN/A
6:00 PM52 °FOvercast.12 mph94%30.24 "HgN/A
5:30 PM52 °FOvercast.12 mph94%30.24 "HgN/A
5:00 PM52 °FOvercast.9 mph94%30.24 "HgN/A
4:30 PM52 °FMostly cloudy.10 mph100%30.21 "HgN/A
4:00 PM52 °FPartly sunny.9 mph100%30.21 "HgN/A
3:30 PM52 °FLow clouds.9 mph94%30.21 "HgN/A
3:00 PM52 °FLow clouds.10 mph100%30.18 "HgN/A
2:30 PM52 °FMostly cloudy.12 mph94%30.18 "HgN/A
2:00 PM52 °FDrizzle. Mostly cloudy.12 mph94%30.18 "Hg4 mi
1:30 PM52 °FLow clouds.12 mph94%30.18 "HgN/A
1:00 PM50 °FLow clouds.13 mph100%30.18 "HgN/A
12:30 PM50 °FLow clouds.13 mph94%30.18 "HgN/A
12:00 PM50 °FMostly cloudy.12 mph94%30.15 "HgN/A
11:30 AM50 °FMostly cloudy.13 mph94%30.15 "HgN/A
11:00 AM48 °FMostly cloudy.10 mph100%30.15 "HgN/A
10:30 AM48 °FDrizzle. Fog.12 mph100%30.15 "Hg3 mi
10:00 AM48 °FLight rain. Fog.12 mph100%30.15 "Hg2 mi
9:30 AM48 °FLight rain. Low clouds.10 mph94%30.12 "Hg6 mi
9:00 AM48 °FLight rain. Low clouds.12 mph94%30.12 "Hg6 mi
8:30 AM48 °FLight rain. Mostly cloudy.12 mph94%30.12 "Hg4 mi
8:00 AM48 °FLight rain. Low clouds.13 mph94%30.09 "Hg5 mi
7:30 AM48 °FRain. Low clouds.12 mph94%30.09 "Hg4 mi
7:00 AM48 °FLight rain. Low clouds.12 mph94%30.09 "Hg4 mi
6:30 AM48 °FRain. Fog.12 mph94%30.09 "Hg3 mi
6:00 AM48 °FLight rain. Mostly cloudy.12 mph94%30.07 "Hg5 mi
5:30 AM48 °FRain. Fog.10 mph94%30.07 "Hg3 mi
4:30 AM48 °FLight rain. Mostly cloudy.12 mph94%30.07 "HgN/A
4:00 AM46 °FLight rain. Mostly cloudy.13 mph100%30.07 "HgN/A
3:30 AM46 °FRain. Low clouds.12 mph100%30.07 "Hg6 mi
3:00 AM46 °FLight rain. Mostly cloudy.13 mph100%30.07 "HgN/A
2:30 AM46 °FLight rain. Low clouds.10 mph93%30.07 "Hg4 mi
2:00 AM46 °FLight rain. Low clouds.8 mph93%30.07 "HgN/A
1:30 AM46 °FLow clouds.9 mph93%30.07 "Hg6 mi
1:00 AM46 °FLow clouds.7 mph93%30.07 "Hg4 mi
12:30 AM45 °FLow clouds.7 mph100%30.07 "Hg4 mi
12:00 AM45 °FLow clouds.8 mph100%30.07 "Hg4 mi
11:30 PM
Dec 17
45 °FLow clouds.9 mph100%30.07 "Hg4 mi
11:00 PM45 °FFog.9 mph93%30.04 "Hg3 mi
Weather by CustomWeather, © 2014

See weather overviewHow to use our weather pages